Regional Weather Roundup
Issued by NWS Upton, NY

Home | Current Version | Previous Version | Text Only | Print | Product List | Glossary On
Versions: 1 2 3 4 5 6 7 8 9 10 11 12 13 14 15 16 17 18 19 20 21 22 23 24 25 26 27 28 29
000
ASUS41 KOKX 250705
RWROKX

REGIONAL WEATHER ROUNDUP
NATIONAL WEATHER SERVICE NEW YORK NY
300 AM EDT FRI APR 25 2014

NOTE: "FAIR" INDICATES FEW OR NO CLOUDS BELOW 12,000 FEET WITH NO
SIGNIFICANT WEATHER AND/OR OBSTRUCTIONS TO VISIBILITY.

NYZ071-072-176-178-NJZ106-104-250800-
NEW YORK CITY METRO AREA


CITY           SKY/WX    TMP DP  RH WIND       PRES   REMARKS
CENTRAL PARK   CLEAR     47  18  31 CALM      30.04S
LAGUARDIA APRT CLEAR     48  19  31 NW6       30.02R
KENNEDY INTL   CLEAR     47  17  30 NW8       30.02S
NEWARK/LIBERTY CLEAR     48  17  29 N10       30.02F
TETERBORO      CLEAR     45  19  35 NW8       30.01S
$$

NYZ177-179-078>081-250800-
LONG ISLAND NEW YORK

CITY           SKY/WX    TMP DP  RH WIND       PRES   REMARKS
FARMINGDALE    CLEAR     45  20  36 NW3       30.01S
ISLIP          CLEAR     45  22  40 NW9       29.98F
SHIRLEY        CLEAR     45  21  38 NW8       30.00R
WESTHAMPTON    CLEAR     42  22  44 N3        29.99S
MONTAUK POINT    N/A     47  33  58 NW8       29.96S
$$

NYZ052-065-067-250800-
HUDSON VALLEY

CITY           SKY/WX    TMP DP  RH WIND       PRES   REMARKS
WHITE PLAINS   CLEAR     42  19  39 NW9       29.99S
NEWBURGH       CLEAR     39  21  48 W12       30.02F WCI  32
MONTGOMERY     CLEAR     38  23  55 CALM      30.00F
POUGHKEEPSIE   CLEAR     34  24  67 CALM      30.01S
ALBANY         CLEAR     36  20  52 CALM      30.01F
$$

NJZ001-105-106-008-010-013-015-019>022-104-250800-
NEW JERSEY

CITY           SKY/WX    TMP DP  RH WIND       PRES   REMARKS
NEWARK/LIBERTY CLEAR     48  17  29 N10       30.02F
TETERBORO      CLEAR     45  19  35 NW8       30.01S
CALDWELL       CLEAR     42  19  39 CALM      30.03F
MORRISTOWN     CLEAR     39  23  52 NE6       30.02F WCI  35
SOMERVILLE     CLEAR     45  17  32 N5        29.99F
LINDEN         FAIR      48  19  32 N6        30.04F
SUSSEX         CLEAR     36  22  56 CALM      30.02F
ANDOVER          N/A     36  25  64 CALM      30.02F
TRENTON        CLEAR     43  18  36 CALM      30.00F
MILLVILLE      CLEAR     31  26  82 CALM      30.01F
ATLANTIC CITY  CLEAR     39  18  42 N5        30.00F
WRIGHTSTOWN    CLEAR     43  18  36 N3        30.00S
TOMS RIVER     CLEAR     39  19  45 CALM      30.01S
BELMAR         CLEAR     46  18  31 N8        30.01F
$$

PAZ047>061-062-071-250800-
EASTERN PENNSYLVANIA

CITY           SKY/WX    TMP DP  RH WIND       PRES   REMARKS
PHILADELPHIA   CLEAR     49  15  25 NE5       30.03S
ALLENTOWN      CLEAR     41  17  38 NE5       30.01F
SCRANTON       CLEAR     38  18  44 VRB6      30.01F WCI  33
$$

CTZ002-004>006-009-010-012-RIZ004-006-007-MAZ004-011-015-250800-
SOUTHERN NEW ENGLAND
 IN CT

CITY           SKY/WX    TMP DP  RH WIND       PRES   REMARKS
BRADLEY INTL   CLEAR     42  16  34 NW6       29.96S
HARTFORD       CLEAR     45  16  31 CALM      29.97S
DANBURY        CLEAR     43  19  38 W5        30.01S
WTRBRY/OXFORD  CLEAR     41  18  38 NW5       30.01R
BRIDGEPORT     CLEAR     46  20  35 NW6       29.99F
MERIDEN        CLEAR     44  19  36 NW8       29.98R
NEW HAVEN      CLEAR     46  21  37 NW6       29.99R
CHESTER        FAIR      45  18  33 NW5       29.97R
GROTON         CLEAR     47  22  37 NW7       29.95R
WILLIMANTIC    CLEAR     43  21  41 N3        29.96R

 IN RI

CITY           SKY/WX    TMP DP  RH WIND       PRES   REMARKS
PROVIDENCE     CLEAR     46  24  42 NW7       29.93F
BLOCK ISLAND   CLEAR     46  27  46 N9        29.93F
WESTERLY       CLEAR     46  23  40 NW6       29.94F

 IN MA

CITY           SKY/WX    TMP DP  RH WIND       PRES   REMARKS
BOSTON         PTCLDY    45  26  47 NW12      29.91F
WORCESTER      CLEAR     39  22  50 NW12      29.92F WCI  32
WESTFIELD      CLEAR     36  23  59 E5        29.96S WCI  32
PROVINCETOWN   MOCLDY    45  34  65 MISG      29.89F
NANTUCKET      CLEAR     47  33  58 N14       29.88R
$$

ANZ330-335-338-340-345-350-353-355-250800-
COASTAL MARINE OBSERVATIONS


STATION/POSITION TIME  SKY/WX   TEMP    WIND        PRES    VSBY  WAVE
                                AIR SEA DIR/SP/G                  HT/PER
                 (UTC)          (F)     (DEG/KT/KT) (MB)    (MI)  (FT/S)
NY HARB ENTRANCE 0700            47 45  VRB  8/  8  1016.2
4S FIRE IS       0600               45                N/A           1/11
23SW MTP         0700            46 43  300/ 10/ 12 1014.1          2/ 4
HUDSON CANYON    0600            48 45  340/ 12/ 14 1015.0          3/ 5
EXECUTION ROCKS  0700            47 46  290/  6/  8   N/A
WESTERN LI SOUND 0700            46     290/  2/  4   N/A           0
CENTRAL LI SOUND 0600            45 43  290/ 10/ 12   N/A           1/ 3
EASTERN LI SOUND NOT AVBL
ROBBINS REEF     0700            48     340/ 11/ 16   N/A
$$


>>>>>>>>>>>>>>>>>>>>>>>>>>>> KEY <<<<<<<<<<<<<<<<<<<<<<<<<<<
>                                                          <
>     SKY/WX - SKY CONDITION/PRESENT WEATHER               <
>     TMP    - TEMPERATURE IN FAHRENHEIT                   <
>     DP     - DEWPOINT IN FAHRENHEIT                      <
>     RH     - RELATIVE HUMIDITY IN PERCENT                <
>     WIND   - DIRECTION AND SPEED IN MPH                  <
>     PRES   - MEAN SEA LEVEL PRESSURE IN INCHES OF HG     <
>     WCI    - WIND CHILL INDEX                            <
>     VSB    - VISIBILITY IN MILES                         <
>     HX     - HEAT INDEX                                  <
>     TC     - TEMPERATURE IN CELSIUS                      <
>     VRB    - VARIABLE WIND DIRECTION                     <
>                                                          <
>>>>>>>>>>>>>>>>>>>>>>>>>>>> KEY <<<<<<<<<<<<<<<<<<<<<<<<<<<





USA.gov is the U.S. government's official web portal to all federal, state and local government web resources and services.